EDT,Max TemperatureF,Mean TemperatureF,Min TemperatureF,Max Dew PointF,MeanDew PointF,Min DewpointF,Max Humidity, Mean Humidity, Min Humidity, Max Sea Level PressureIn, Mean Sea Level PressureIn, Min Sea Level PressureIn, Max VisibilityMiles, Mean VisibilityMiles, Min VisibilityMiles, Max Wind SpeedMPH, Mean Wind SpeedMPH, Max Gust SpeedMPH,PrecipitationIn, CloudCover, Events, WindDirDegrees
2013-6-1,88,77,65,67,62,59,84,62,39,30.00,29.95,29.91,10,10,10,20,13,26,0.00,0,,235
2013-6-2,86,76,65,66,64,61,93,69,44,29.90,29.83,29.77,10,10,8,28,15,38,0.02,1,Rain,222
2013-6-3,75,65,54,64,61,40,100,78,55,29.88,29.84,29.79,10,6,2,22,8,27,0.81,6,Rain,248
2013-6-4,68,59,49,44,40,36,66,52,37,30.11,29.96,29.86,10,10,10,23,12,32,0.00,1,,305
2013-6-5,70,60,50,48,43,38,74,55,36,30.20,30.16,30.12,10,10,10,15,7,21,0.00,1,,288
2013-6-6,69,61,52,52,47,43,86,66,45,30.19,30.15,30.11,10,10,10,18,8,22,0.07,2,Rain,165
2013-6-7,56,53,50,56,53,50,100,97,93,30.09,30.00,29.82,10,5,0,18,10,27,2.68,8,Fog-Rain,72
2013-6-8,73,61,49,60,55,49,100,81,61,30.03,29.81,29.64,10,7,0,20,13,27,0.59,5,Rain,305
2013-6-9,75,65,55,55,52,50,93,69,44,30.19,30.12,30.04,10,10,10,17,11,23,0.00,1,,284
2013-6-10,68,62,55,60,57,50,100,79,58,30.21,30.11,30.00,10,5,0,16,7,23,0.97,6,Fog-Rain,80
2013-6-11,61,57,53,58,55,54,100,95,90,30.00,29.75,29.60,10,4,0,16,7,24,0.90,8,Fog-Rain,53
2013-6-12,66,61,55,56,52,49,93,75,56,29.85,29.69,29.59,10,10,10,28,15,37,T,6,,297
2013-6-13,62,56,49,55,52,48,100,85,69,29.83,29.76,29.66,10,5,0,16,7,25,1.32,7,Rain,74
2013-6-14,71,60,49,53,50,47,100,72,44,29.81,29.73,29.63,10,8,2,17,10,27,0.88,5,Rain,13
2013-6-15,74,65,56,50,43,39,72,51,29,29.96,29.92,29.83,10,10,10,20,10,23,0.00,0,,294
2013-6-16,73,63,52,60,51,41,78,63,47,29.96,29.87,29.74,10,10,10,18,11,26,0.00,3,,241
2013-6-17,81,70,58,61,58,56,97,70,42,29.92,29.87,29.82,10,10,5,28,10,35,0.14,2,Rain-Thunderstorm,260
2013-6-18,73,64,54,63,58,54,100,84,68,29.96,29.93,29.89,10,8,0,16,7,22,0.99,7,Rain,45
2013-6-19,71,62,53,54,47,36,100,69,37,30.17,30.02,29.92,10,10,5,15,8,20,0.01,3,Rain,356
2013-6-20,75,64,52,55,46,40,78,56,33,30.28,30.24,30.18,10,10,10,15,7,18,0.00,1,,257
2013-6-21,79,67,54,62,57,51,86,67,48,30.28,30.26,30.24,10,10,10,16,10,21,0.00,1,,245
2013-6-22,80,70,60,60,56,53,78,59,39,30.24,30.21,30.14,10,10,10,23,12,27,0.00,1,,236
2013-6-23,86,75,63,68,63,54,84,70,55,30.18,30.11,30.05,10,10,10,21,14,27,0.00,2,,238
2013-6-24,88,78,67,70,67,64,97,75,53,30.04,29.99,29.93,10,9,6,25,12,35,0.13,2,Rain-Thunderstorm,272
2013-6-25,86,76,66,69,65,62,93,71,48,29.96,29.87,29.77,10,10,10,26,12,35,T,2,,255
2013-6-26,81,75,68,67,66,64,93,76,58,29.88,29.82,29.76,10,10,10,20,9,25,0.00,3,,294
2013-6-27,70,66,62,67,65,62,100,92,84,29.88,29.83,29.76,10,3,0,12,6,16,0.04,8,Fog-Rain,95
2013-6-28,78,69,59,70,66,59,100,87,74,29.75,29.59,29.52,10,4,0,20,9,25,0.51,6,Fog-Rain-Thunderstorm,139
2013-6-29,79,74,68,68,67,64,100,81,62,29.76,29.61,29.53,10,7,0,20,12,26,T,6,Fog-Rain,206
2013-6-30,82,75,68,70,67,66,97,78,58,29.96,29.86,29.75,10,9,5,18,10,23,0.00,5,,209